Wind_Speed
46 47 47 47 47 47 47 46 46 46 46 46 45 45 44 43 43 42 41 41 40 39 38 37 36 35 34 34 33 33 33 33 33 33 32 32 31 31 31 31 31 31 31
47 47 48 48 48 49 48 48 47 47 47 47 46 46 46 45 44 44 43 42 42 41 40 39 38 37 36 36 36 35 34 34 34 34 33 33 32 32 32 32 32 32 32
47 47 48 48 49 49 49 49 48 48 48 47 47 47 47 46 46 45 45 44 43 43 42 41 41 40 38 37 37 37 36 35 35 35 35 34 34 33 34 33 33 34 34
46 47 48 49 49 49 49 49 49 49 49 49 48 48 47 46 46 46 46 45 45 44 44 43 42 42 40 39 39 39 38 37 36 36 36 36 36 35 35 35 35 35 36
45 46 47 47 48 49 49 50 49 49 49 49 49 49 48 48 47 47 47 47 46 45 45 44 43 43 42 41 40 40 40 39 38 37 37 37 37 37 37 36 36 36 37
44 45 46 46 47 48 49 49 49 49 49 49 49 49 49 49 48 48 48 48 47 46 45 45 44 44 44 43 41 42 41 41 40 40 39 39 39 39 39 38 38 38 37
42 43 45 46 46 47 48 48 48 48 49 49 49 49 49 49 49 49 48 48 48 47 47 46 46 45 45 44 43 42 43 42 42 42 42 41 41 41 40 40 40 40 39
41 42 43 45 46 47 47 47 47 48 48 49 49 49 49 49 49 49 49 49 48 48 48 48 47 46 45 45 44 43 44 44 43 43 43 42 42 41 42 42 41 41 40
41 42 43 44 45 46 47 47 47 47 48 48 50 50 50 50 49 50 50 50 49 48 48 47 47 47 46 45 45 45 44 44 43 43 43 43 43 42 43 42 42 41 41
40 42 43 44 45 46 46 46 47 48 48 48 49 50 51 51 50 50 50 50 50 49 49 49 48 47 47 46 46 46 46 45 45 44 44 44 44 43 43 43 43 43 42
40 41 41 43 44 45 46 46 47 48 48 48 48 50 51 51 51 51 51 51 51 50 50 50 49 49 48 48 47 47 46 46 46 46 45 44 45 45 43 43 44 44 44
39 40 41 42 43 45 46 46 46 47 48 48 48 49 49 50 51 51 51 51 51 51 51 50 50 50 49 50 49 49 48 47 47 46 46 45 46 45 44 44 44 43 43
36 38 40 41 42 44 46 47 47 46 46 47 48 48 49 49 50 50 51 51 51 51 51 51 51 50 49 49 49 49 49 48 47 46 46 46 46 46 45 44 43 43 43
34 36 38 39 41 43 44 46 46 46 46 46 46 47 47 48 49 50 51 51 51 51 51 50 50 49 49 49 49 49 48 48 48 47 46 46 46 45 45 45 44 43 43
31 33 35 37 38 40 41 43 44 44 45 45 46 46 47 48 48 48 49 50 51 51 50 50 49 49 49 49 49 49 48 48 47 47 47 47 47 46 45 45 45 44 44
31 32 33 35 37 39 40 41 42 43 44 45 45 46 47 48 48 48 48 50 50 50 50 50 50 50 50 49 49 49 48 48 47 47 47 46 46 46 45 44 45 45 44
31 32 33 34 36 38 39 40 41 41 42 43 44 45 46 47 48 48 48 49 50 51 51 51 52 51 51 50 50 49 49 48 48 48 47 46 46 46 46 45 46 46 46
31 32 33 34 36 37 38 40 41 41 42 43 43 44 45 46 47 47 48 48 49 50 51 51 51 52 52 51 51 50 49 49 49 49 48 47 47 46 47 47 46 46 46
30 32 33 35 36 37 38 38 40 41 42 42 43 44 44 45 45 46 47 47 48 49 50 50 51 51 51 51 51 50 50 50 50 50 49 49 48 48 48 47 46 46 46
29 31 32 33 35 36 37 37 39 40 41 41 42 43 44 44 44 44 45 45 46 47 48 48 49 49 50 51 51 51 50 50 50 50 49 49 49 48 48 48 47 46 46
28 29 30 31 32 33 34 35 36 37 38 39 40 40 41 41 41 42 43 43 44 44 45 46 47 48 48 49 50 50 51 50 50 49 49 49 49 49 49 48 48 47 47
27 28 29 29 29 30 31 32 33 35 36 37 37 38 38 38 39 39 40 41 42 42 43 44 44 45 46 47 48 49 50 51 51 51 50 50 50 49 49 49 48 47 46
27 27 28 28 28 29 30 30 31 33 34 35 36 36 36 36 37 38 39 39 40 41 42 42 43 44 45 45 45 46 47 48 50 50 50 50 49 48 48 47 46 46 45
26 26 27 27 28 28 28 29 30 31 32 33 34 34 35 35 35 36 36 37 37 38 39 40 41 41 42 43 43 44 44 44 45 46 47 47 47 47 46 46 45 45 45
24 24 25 25 26 26 27 27 28 29 29 30 31 32 33 33 33 33 33 34 34 35 36 37 38 38 39 40 41 41 42 42 41 42 43 44 45 45 45 45 45 44 44
21 22 22 22 24 24 25 25 26 27 28 28 29 30 31 32 32 32 32 32 32 33 33 34 36 36 36 36 38 39 40 40 40 40 40 41 42 42 43 43 43 43 43
Wind_Direction
235 235 235 235 235 235 235 236 236 236 237 237 238 239 239 239 239 240 241 243 244 245 245 246 247 248 250 252 254 255 256 257 258 259 259 260 262 263 264 266 267 268 267
235 235 235 236 236 235 236 236 237 237 237 237 238 239 239 239 239 240 241 243 244 246 246 247 248 249 251 253 254 254 256 257 258 259 259 259 261 263 264 266 267 267 266
236 236 235 235 235 235 236 236 237 238 238 238 238 239 240 239 240 241 242 243 244 246 246 247 249 250 251 253 255 254 256 257 258 258 259 260 260 262 264 265 267 267 267
236 236 236 235 235 235 236 236 237 238 238 238 239 240 241 241 241 242 243 243 244 245 246 247 248 250 251 254 255 254 255 256 257 258 259 260 262 263 264 264 265 266 267
235 235 235 235 235 235 236 236 236 237 238 238 238 239 240 241 242 242 243 243 244 245 246 247 248 250 251 253 253 254 254 256 257 258 259 260 262 263 264 265 265 266 267
235 235 234 234 235 235 236 236 236 237 238 238 238 239 240 241 242 242 243 244 244 245 246 247 248 250 251 252 252 253 254 255 257 258 259 260 262 264 265 267 266 266 266
235 236 234 234 235 235 235 236 237 237 238 239 239 239 240 241 242 242 243 244 244 245 246 247 248 249 250 251 253 253 254 255 256 257 259 261 262 264 265 266 266 266 267
236 236 236 235 235 235 236 237 238 238 239 240 240 240 241 241 242 243 243 244 245 246 246 247 247 248 249 251 252 253 254 255 257 258 259 260 262 263 263 264 265 266 267
237 237 237 237 236 236 236 238 238 239 240 241 241 241 242 242 242 243 244 245 246 246 247 247 248 248 249 251 252 254 255 256 257 259 260 260 262 263 262 263 264 266 267
239 238 238 238 238 237 238 239 240 240 240 242 242 242 243 243 243 244 244 245 246 246 246 247 248 249 250 251 252 253 254 255 256 258 259 260 261 263 263 263 264 265 266
240 240 240 239 239 239 238 240 240 241 241 242 242 242 243 243 244 244 244 245 245 246 246 247 249 250 251 251 252 253 255 256 257 258 260 261 261 263 263 264 264 265 266
242 242 242 241 240 240 240 240 241 241 241 242 242 242 243 243 244 244 244 245 246 246 246 248 248 249 251 251 252 253 254 256 257 257 259 261 261 262 262 264 264 264 265
244 244 243 242 241 242 242 241 241 242 241 241 242 242 243 244 244 244 244 245 246 246 247 248 248 249 251 251 252 253 254 256 256 257 258 259 261 262 262 263 264 265 265
246 246 244 243 243 242 242 242 242 242 241 241 241 242 243 244 245 245 245 246 246 247 247 248 249 249 250 251 252 253 254 255 256 257 258 259 260 262 263 263 264 265 265
246 246 245 244 243 243 242 242 242 242 242 242 242 243 243 245 246 247 247 247 247 247 248 248 248 249 250 251 252 253 254 254 255 256 257 259 260 261 262 263 264 264 265
247 247 246 245 243 242 242 242 242 243 244 244 244 244 245 245 247 248 249 249 248 248 249 249 249 249 250 251 252 253 253 253 253 255 257 258 260 261 261 262 263 264 265
248 247 247 245 244 243 243 243 243 243 243 244 245 245 246 246 248 249 250 250 249 248 249 250 250 250 250 251 252 252 253 253 254 255 256 257 258 260 261 262 263 264 265
249 248 248 246 246 245 245 245 245 244 245 245 246 246 246 247 248 249 250 250 249 249 250 250 251 251 251 251 252 252 253 254 255 256 256 257 258 260 262 262 263 264 265
251 251 250 249 248 247 246 246 246 246 246 247 247 247 247 248 249 250 251 251 250 250 251 251 252 252 251 252 252 253 254 254 255 256 256 257 258 259 261 262 263 264 265
254 252 251 251 251 250 248 248 247 247 247 247 248 248 249 249 249 250 251 251 251 251 252 252 252 252 252 252 252 253 253 254 255 256 256 256 257 258 260 261 262 263 264
255 253 252 252 251 250 250 249 248 248 248 248 248 249 249 250 250 251 251 251 252 252 252 253 253 252 253 253 252 252 252 253 254 254 255 256 257 258 259 261 262 263 264
259 257 255 253 253 251 250 249 248 248 249 249 249 249 249 250 251 251 252 252 253 253 252 252 252 252 253 253 252 252 252 253 253 253 254 255 257 258 259 261 261 262 263
262 259 256 254 254 254 252 251 251 250 250 249 248 249 249 250 251 252 253 253 254 254 253 252 252 252 252 252 252 252 252 253 253 252 253 254 256 257 259 259 260 261 263
261 258 257 256 255 254 253 252 252 252 251 250 249 248 248 249 250 251 252 251 253 254 253 252 251 251 251 251 251 251 252 253 253 252 251 252 254 256 258 259 260 261 263
262 259 257 256 255 254 253 253 252 252 250 249 248 248 248 248 249 250 251 251 252 253 252 250 250 251 251 250 251 252 252 253 253 251 251 252 253 255 257 257 259 261 263
264 261 258 257 255 253 252 250 250 249 249 248 248 249 249 249 250 250 250 251 252 253 253 251 249 249 250 250 251 252 252 253 252 251 252 252 254 255 256 257 259 261 262
Height
5697 5702 5707 5711 5716 5721 5725 5730 5734 5738 5742 5746 5750 5754 5758 5761 5765 5768 5771 5774 5777 5780 5782 5785 5787 5789 5791 5793 5794 5795 5797 5798 5799 5800 5801 5802 5802 5803 5803 5803 5803 5803 5803
5686 5691 5696 5700 5705 5710 5715 5719 5724 5728 5732 5737 5740 5744 5748 5752 5755 5759 5762 5765 5768 5771 5774 5777 5779 5781 5783 5785 5787 5788 5789 5790 5791 5792 5793 5794 5795 5795 5796 5796 5796 5796 5796
5675 5680 5684 5689 5694 5699 5704 5709 5713 5718 5722 5726 5730 5734 5738 5741 5745 5749 5753 5756 5759 5762 5765 5768 5770 5772 5775 5776 5778 5780 5781 5782 5783 5784 5785 5786 5787 5788 5788 5788 5788 5788 5788
5663 5668 5673 5678 5683 5688 5693 5698 5703 5707 5711 5715 5720 5724 5728 5732 5736 5739 5742 5746 5749 5752 5755 5758 5761 5763 5765 5767 5769 5771 5772 5774 5775 5776 5777 5778 5778 5779 5780 5781 5780 5780 5780
5652 5657 5662 5667 5672 5677 5682 5687 5691 5696 5700 5705 5709 5713 5717 5721 5725 5728 5732 5735 5739 5742 5745 5748 5751 5753 5756 5758 5760 5761 5763 5765 5766 5767 5768 5768 5769 5769 5770 5771 5772 5771 5771
5641 5646 5651 5656 5661 5666 5670 5675 5680 5685 5689 5694 5698 5702 5706 5710 5714 5717 5721 5725 5728 5731 5735 5738 5740 5743 5746 5748 5750 5752 5753 5755 5757 5758 5759 5759 5760 5761 5761 5761 5761 5762 5762
5631 5636 5641 5645 5650 5655 5660 5664 5669 5673 5678 5682 5686 5691 5695 5699 5703 5707 5710 5714 5718 5721 5724 5727 5730 5732 5735 5738 5739 5742 5744 5745 5746 5748 5749 5750 5751 5751 5751 5751 5751 5751 5752
5621 5626 5630 5634 5639 5644 5649 5653 5658 5662 5666 5671 5675 5679 5683 5687 5691 5695 5699 5703 5707 5710 5713 5716 5719 5722 5724 5727 5729 5731 5733 5735 5736 5737 5738 5739 5740 5740 5741 5741 5741 5741 5742
5611 5615 5619 5624 5628 5633 5638 5642 5647 5651 5655 5659 5663 5667 5671 5676 5680 5683 5687 5691 5695 5698 5701 5704 5708 5710 5713 5716 5718 5720 5722 5724 5726 5726 5727 5729 5730 5730 5730 5731 5731 5731 5732
5601 5605 5609 5613 5617 5622 5626 5630 5635 5639 5644 5648 5651 5656 5659 5664 5667 5671 5675 5679 5683 5686 5690 5693 5696 5699 5702 5704 5707 5709 5711 5713 5714 5715 5717 5718 5719 5719 5720 5720 5720 5721 5721
5591 5595 5598 5602 5606 5610 5615 5619 5623 5627 5632 5636 5640 5643 5647 5651 5655 5659 5663 5667 5670 5674 5678 5681 5684 5688 5690 5693 5695 5697 5699 5701 5703 5704 5705 5707 5707 5708 5709 5709 5709 5710 5710
5581 5584 5588 5591 5595 5599 5603 5607 5611 5615 5619 5624 5627 5631 5635 5638 5643 5647 5650 5654 5658 5662 5665 5669 5672 5675 5678 5681 5683 5685 5687 5689 5691 5693 5694 5695 5696 5697 5698 5699 5699 5699 5699
5572 5575 5578 5581 5585 5588 5591 5595 5599 5603 5607 5611 5615 5619 5623 5626 5630 5634 5638 5642 5646 5649 5653 5656 5660 5663 5666 5668 5670 5673 5675 5677 5679 5681 5682 5684 5685 5686 5687 5687 5688 5688 5688
5563 5565 5568 5571 5574 5577 5580 5584 5587 5591 5595 5599 5603 5607 5611 5615 5618 5622 5626 5629 5633 5637 5640 5644 5647 5650 5653 5655 5658 5660 5662 5665 5667 5669 5671 5672 5673 5674 5675 5676 5676 5677 5677
5554 5556 5559 5561 5564 5567 5570 5573 5576 5580 5584 5588 5592 5595 5599 5603 5606 5610 5613 5617 5620 5624 5627 5631 5634 5637 5640 5643 5645 5648 5650 5652 5654 5656 5658 5660 5661 5662 5663 5664 5665 5665 5666
5546 5548 5550 5552 5554 5557 5559 5562 5566 5569 5573 5577 5580 5584 5587 5590 5594 5597 5600 5604 5607 5611 5614 5618 5621 5624 5627 5630 5632 5634 5637 5640 5642 5644 5646 5648 5649 5650 5651 5652 5653 5654 5655
5537 5538 5540 5542 5544 5546 5549 5552 5555 5559 5562 5566 5569 5572 5575 5578 5582 5585 5588 5591 5594 5597 5601 5604 5608 5611 5614 5617 5619 5621 5624 5627 5629 5632 5634 5635 5637 5638 5639 5640 5641 5642 5643
5527 5529 5530 5532 5534 5536 5539 5542 5545 5548 5551 5554 5557 5560 5563 5566 5569 5572 5575 5578 5581 5584 5587 5590 5594 5597 5600 5603 5606 5608 5611 5614 5617 5619 5621 5623 5625 5626 5627 5628 5629 5630 5631
5518 5519 5520 5522 5524 5526 5528 5531 5534 5537 5540 5543 5546 5549 5552 5555 5557 5560 5563 5565 5568 5571 5574 5577 5580 5583 5586 5589 5592 5595 5598 5601 5603 5606 5608 5610 5612 5614 5615 5616 5617 5618 5619
5509 5510 5511 5512 5514 5516 5518 5520 5523 5526 5529 5532 5534 5537 5540 5543 5546 5548 5550 5553 5555 5558 5561 5564 5566 5569 5573 5576 5578 5581 5584 5587 5590 5593 5595 5597 5599 5601 5601 5603 5605 5606 5607
5501 5501 5502 5503 5504 5506 5508 5510 5513 5515 5518 5521 5523 5526 5529 5531 5534 5536 5539 5541 5543 5546 5548 5551 5553 5556 5559 5562 5564 5567 5570 5573 5576 5579 5581 5584 5586 5587 5589 5590 5592 5593 5594
5493 5493 5494 5495 5496 5497 5499 5501 5503 5506 5508 5511 5513 5515 5518 5520 5523 5525 5527 5529 5531 5534 5536 5538 5541 5543 5545 5548 5550 5553 5556 5559 5562 5565 5568 5570 5572 5574 5575 5577 5579 5580 5580
5484 5485 5485 5487 5488 5489 5490 5492 5494 5496 5498 5501 5503 5505 5507 5510 5512 5514 5516 5518 5520 5522 5524 5526 5529 5531 5533 5535 5537 5540 5542 5544 5547 5551 5554 5556 5558 5560 5562 5564 5565 5566 5567
5476 5477 5477 5478 5479 5480 5482 5483 5485 5487 5489 5491 5493 5495 5497 5500 5502 5503 5505 5507 5508 5510 5512 5514 5516 5518 5520 5522 5525 5527 5529 5531 5533 5536 5539 5542 5544 5546 5548 5550 5552 5553 5554
5469 5469 5469 5470 5471 5472 5474 5475 5477 5478 5480 5482 5484 5486 5488 5490 5491 5493 5495 5496 5498 5499 5501 5503 5505 5507 5509 5511 5513 5515 5517 5519 5521 5523 5526 5528 5531 5533 5535 5537 5539 5540 5541
5462 5462 5463 5463 5464 5465 5466 5467 5469 5470 5471 5473 5475 5477 5478 5480 5482 5484 5485 5486 5488 5489 5490 5492 5494 5496 5498 5500 5502 5504 5506 5508 5510 5511 5513 5516 5518 5520 5522 5524 5526 5527 5529